Location: Capelle
(50.3413°N, 1.9974°E)
Time: 23:31:59
(UTC+00:00)

Okean 2 - Pass Details

Date: 12 January 2026
Orbit: 515 x 525 km, 82.5° (Epoch: 9 February)

Event Time Altitude Azimuth Distance (km) Brightness Sun altitude
Rises 18:58:10 0° 198° (SSW) 2,644 7.1 -25.5°
Reaches altitude 10° 19:00:19 10° 202° (SSW) 1,758 6.2 -25.9°
Enters shadow 19:02:49 36° 220° (SW) 837 4.5 -26.2°
